Home   Weather   Gdańsk   Past weeks

Flag for Poland Past Weather in Gdańsk, Poland — Yesterday and Last 2 Weeks

Now
34 °F

Clear.


Feels Like: 28 °F
Forecast: 37 / 48 °F
Wind: 7 mph from Southwest

Location: Gdansk-Rebiechowo

Current Time: Apr 26, 2017 at 4:16:52 am

Latest Report: Apr 26, 2017 at 3:30 am


Visibility: 10 mi

Pressure: 29.68 "Hg

Humidity: 93%

Dew Point: 32 °F

Location of GdańskLocation

Past Weather in Gdańsk — Graph

°F

Gdańsk Temperature Yesterday

Maximum temperature yesterday: 46 °F (at 12:00 am)
Minimum temperature yesterday: 36 °F (at 10:30 pm)
Average temperature yesterday: 40 °F

High & Low Weather Summary for the Past Weeks

 TemperatureHumidityPressure
High52 °F (Apr 21, 3:30 pm)100% (Apr 13, 9:30 pm)30.51 "Hg (Apr 13, 9:30 pm)
Low27 °F (Apr 17, 3:30 am)42% (Apr 20, 12:30 pm)29.47 "Hg (Apr 13, 3:30 am)
Average39 °F76%29.90 "Hg
* Reported Apr 11 3:00 am — Apr 26 3:00 am, Gdańsk, Weather by CustomWeather, © 2017

Note: Actual official high and low records may vary slightly from our data, if they occured in-between our weather recording intervals... More about our weather records

Advertising

Gdańsk Weather History for the Previous 24 Hours

Scroll right to see more
 ConditionsComfort  
Time TempWeatherWind HumidityBarometerVisibility
3:00 am
Wed, Apr 26
34 °FClear.8 mph93%29.68 "Hg10 mi
2:30 am34 °FClear.6 mph93%29.68 "Hg10 mi
2:00 am34 °FClear.7 mph93%29.68 "Hg10 mi
1:30 am36 °FClear.9 mph87%29.68 "Hg10 mi
1:00 am36 °FClear.12 mph87%29.68 "Hg10 mi
12:30 am36 °FClear.13 mph93%29.68 "Hg10 mi
12:00 am36 °FClear.13 mph93%29.65 "Hg10 mi
11:30 pm
Tue, Apr 25
36 °FClear.10 mph93%29.65 "Hg10 mi
11:00 pm36 °FPassing clouds.12 mph93%29.65 "HgN/A
10:30 pm36 °FPassing clouds.10 mph93%29.65 "HgN/A
10:00 pm37 °FPassing clouds.12 mph87%29.65 "HgN/A
9:30 pm37 °FPassing clouds.10 mph87%29.65 "HgN/A
9:00 pm39 °FPartly cloudy.14 mph87%29.62 "HgN/A
8:30 pm39 °FPassing clouds.10 mph87%29.62 "HgN/A
8:00 pm41 °FPartly sunny.7 mph81%29.62 "HgN/A
7:30 pm41 °FScattered clouds.6 mph87%29.59 "HgN/A
7:00 pm41 °FBroken clouds.9 mph81%29.62 "HgN/A
6:30 pm41 °FBroken clouds.12 mph87%29.59 "HgN/A
6:00 pm39 °FPartly sunny.10 mph93%29.59 "HgN/A
5:30 pm39 °FPartly sunny.8 mph93%29.59 "HgN/A
5:00 pm39 °FBroken clouds.8 mph93%29.59 "HgN/A
4:30 pm39 °FLow clouds.7 mph93%29.59 "HgN/A
4:00 pm37 °FLight rain. Low clouds.7 mph93%29.56 "HgN/A
3:30 pm37 °FLight rain. Mostly cloudy.7 mph93%29.56 "HgN/A
3:00 pm37 °FPartly sunny.10 mph93%29.56 "HgN/A
2:30 pm37 °FLight rain. Broken clouds.6 mph93%29.53 "HgN/A
2:00 pm37 °FLight rain. Partly sunny.10 mph93%29.56 "Hg5 mi
1:30 pm37 °FDrizzle. More clouds than sun.9 mph100%29.53 "HgN/A
1:00 pm39 °FLight rain. More clouds than sun.7 mph93%29.53 "HgN/A
12:30 pm39 °FMostly cloudy.7 mph93%29.53 "HgN/A
12:00 pm39 °FLight rain. More clouds than sun.8 mph93%29.53 "Hg5 mi
11:30 am41 °FSleet. Mostly cloudy.6 mph93%29.53 "HgN/A
11:00 am41 °FSleet. Fog.7 mph93%29.53 "Hg3 mi
10:30 am41 °FDrizzle. Fog.7 mph93%29.53 "Hg1 mi
10:00 am45 °FLight rain. Broken clouds.5 mph93%29.50 "HgN/A
9:00 am43 °FLight rain. Broken clouds.8 mph93%29.53 "HgN/A
8:30 am43 °FLight rain. Broken clouds.8 mph93%29.53 "HgN/A
8:00 am41 °FLight rain. Partly sunny.5 mph93%29.53 "HgN/A
7:30 am41 °FLight rain. Scattered clouds.2 mph93%29.56 "HgN/A
7:00 am41 °FLight rain. Partly sunny.3 mph93%29.56 "HgN/A
6:30 am41 °FLight rain. Partly sunny.5 mph93%29.56 "Hg5 mi
6:00 am39 °FLight rain. Broken clouds.2 mph100%29.59 "HgN/A
5:30 am39 °FLight rain. Partly sunny.2 mph100%29.59 "HgN/A
5:00 am41 °FLight rain. Partly cloudy.3 mph93%29.59 "HgN/A
4:30 am41 °FLight rain. Partly cloudy.3 mph93%29.59 "HgN/A
4:00 am41 °FLight rain. Passing clouds.5 mph93%29.62 "HgN/A
Weather by CustomWeather, © 2017

See weather overviewHow to use our weather pages